Regional Weather Roundup
Issued by NWS

Home | Current Version | Previous Version | Graphics & Text | Print | Product List | Glossary On
Versions: 1 2 3 4 5 6 7 8 9 10 11 12 13 14 15 16 17 18 19 20 21 22 23 24 25 26 27 28 29 30 31 32 33 34 35 36 37 38 39 40 41 42 43 44 45 46 47 48 49 50
000
ASUS45 KBOI 072010
RWRID

IDAHO REGIONAL WEATHER ROUNDUP
NATIONAL WEATHER SERVICE BOISE ID
100 PM MST SUN FEB 07 2016

NOTE: "FAIR" INDICATES FEW OR NO CLOUDS BELOW 12000 FEET
WITH NO SIGNIFICANT WEATHER AND/OR OBSTRUCTIONS TO VISIBILITY

IDZ012-014-072100-
SOUTHWEST IDAHO


CITY           SKY/WX    TMP DP  RH WIND       PRES   REMARKS
BOISE          SUNNY     43  33  68 CALM      30.61F
CALDWELL       SUNNY     43  34  70 CALM      30.65F
MOUNTAIN HOME  SUNNY     41 N/A N/A NW3       30.62F
$$

IDZ016-017-072100-
SOUTHCENTRAL IDAHO


CITY           SKY/WX    TMP DP  RH WIND       PRES   REMARKS
BURLEY         MOSUNNY   39  30  70 NW5       30.58F
JEROME         MOSUNNY   35  29  78 CALM      30.60S
TWIN FALLS     MOSUNNY   40  33  76 W5        30.60S
$$

IDZ019>023-072100-
SOUTHEAST IDAHO


CITY           SKY/WX    TMP DP  RH WIND       PRES   REMARKS
IDAHO FALLS    CLOUDY    25  23  92 NW8       30.60S FOG     WCI  16
POCATELLO      CLOUDY    32  23  69 CALM      30.60F
REXBURG        CLOUDY    25  23  92 W8        30.58S FOG     WCI  16
$$

IDZ006-010-011-018-031-032-072100-
CENTRAL IDAHO MOUNTAINS


CITY           SKY/WX    TMP DP  RH WIND       PRES   REMARKS
MCCALL         SUNNY     28  25  88 CALM      30.57F
HAILEY         MOSUNNY   37  19  48 W5        30.56F WCI  34
STANLEY          N/A     29  15  56 CALM      30.57F
SALMON         SUNNY     23  12  63 CALM      30.61F
CHALLIS        SUNNY     25  15  66 CALM      30.58F
$$

IDZ002-004-006-007-026-072100-
NORTHERN IDAHO


CITY           SKY/WX    TMP DP  RH WIND       PRES   REMARKS
LEWISTON       SUNNY     44  32  62 CALM      30.63F
LOWELL           N/A     45  30  55 N5        30.67F
COEUR D`ALENE  SUNNY     41  30  65 CALM      30.58F
MULLAN PASS    SUNNY     29  20  69 VRB3      30.50R
$$



USA.gov is the U.S. government's official web portal to all federal, state and local government web resources and services.